Weather History for Alexandria, LA

Change the Weather History Date:

Sunday, March 2, 2014

  Actual Average Record
Temperature  
Mean Temperature 58 °F 56 °F  
Max Temperature 76 °F 67 °F 84 °F (1940)
Min Temperature 40 °F 45 °F 23 °F (1980)
Degree Days  
Heating Degree Days 7 10  
Month to date heating degree days 7 20  
Since 1 July heating degree days 2023 1685  
Cooling Degree Days 0 1  
Month to date cooling degree days 1 2  
Year to date cooling degree days 12 19  
Growing Degree Days 7 (Base 50)    
Moisture  
Dew Point 59 °F    
Average Humidity 82    
Maximum Humidity 100    
Minimum Humidity 64    
Precipitation  
Precipitation 0.30 in 0.17 in 3.42 in (1964)
Month to date precipitation 0.30 0.34  
Year to date precipitation 6.68 10.02  
Snow  
Snow 0.00 in - T in (1950)
Month to date snowfall 0.0  
Since 1 July snowfall 4.8  
Snow Depth 0.00 in    
Sea Level Pressure  
Sea Level Pressure 30.00 in    
Wind  
Wind Speed 11 mph (SSE)    
Max Wind Speed 35 mph    
Max Gust Speed 41 mph    
Visibility 8 miles    
Events Rain    
T = Trace of Precipitation, MM = Missing Value Source: NWS Daily Summary

Daily Weather History Graph

Daily Weather History Graph

Search for Another Location

Airport:

Trip Planner

Search our weather history database for the weather conditions in past years. The results will help you decide how hot, cold, wet, or windy it might be!

Date:

Astronomy

Mar. 02, 2014 Rise Set
Actual Time 6:35 AM CST 6:09 PM CST
Civil Twilight 6:11 AM CST 6:33 PM CST
Nautical Twilight 5:43 AM CST 7:01 PM CST
Astronomical Twilight 5:15 AM CST 7:29 PM CST
Moon 7:15 AM CST (3/2) 7:55 PM CST (3/2)
Length of Visible Light 12h 22m
Length of Day
11h 33m
Waxing Crescent, 3% of the Moon is Illuminated
Mar 2
Waxing Crescent
Mar 8
First Quarter
Mar 16
Full
Mar 23
Last Quarter
Mar 30
New

Hourly Weather History & Observations

Time (CST) Temp. Windchill Dew Point Humidity Pressure Visibility Wind Dir Wind Speed Gust Speed Precip Events Conditions
12:53 AM 60.1 °F - 60.1 °F 100% 30.05 in 7.0 mi SE 6.9 mph - N/A   Mostly Cloudy
1:53 AM 62.1 °F - 61.0 °F 96% 30.05 in 8.0 mi Calm Calm - N/A   Overcast
2:53 AM 62.1 °F - 61.0 °F 96% 30.03 in 8.0 mi SE 6.9 mph - N/A   Overcast
3:53 AM 62.1 °F - 61.0 °F 96% 30.03 in 9.0 mi SE 4.6 mph - N/A   Overcast
4:53 AM 62.1 °F - 61.0 °F 96% 30.04 in 9.0 mi SE 5.8 mph - N/A   Overcast
5:02 AM 62.1 °F - 61.0 °F 96% 30.03 in 9.0 mi SE 8.1 mph - N/A   Overcast
5:32 AM 63.0 °F - 61.0 °F 93% 30.03 in 10.0 mi SE 6.9 mph - N/A   Overcast
5:53 AM 63.0 °F - 61.0 °F 93% 30.04 in 10.0 mi SE 9.2 mph - N/A   Overcast
6:43 AM 64.0 °F - 62.1 °F 93% 30.05 in 10.0 mi SE 8.1 mph - N/A   Overcast
6:53 AM 64.0 °F - 62.1 °F 93% 30.06 in 10.0 mi SE 8.1 mph - N/A   Overcast
7:53 AM 64.0 °F - 63.0 °F 96% 30.09 in 8.0 mi ESE 8.1 mph - N/A   Overcast
8:53 AM 64.9 °F - 63.0 °F 93% 30.09 in 6.0 mi ESE 10.4 mph - N/A   Overcast
9:53 AM 66.0 °F - 64.0 °F 93% 30.09 in 6.0 mi SE 10.4 mph - N/A   Overcast
10:53 AM 66.0 °F - 64.0 °F 93% 30.09 in 5.0 mi SSE 11.5 mph - N/A   Overcast
11:53 AM 66.9 °F - 64.9 °F 93% 30.06 in 7.0 mi SSE 12.7 mph - N/A   Overcast
12:53 PM 70.0 °F - 64.9 °F 84% 30.02 in 10.0 mi SSE 10.4 mph - N/A   Overcast
1:01 PM 69.1 °F - 64.9 °F 87% 30.01 in 10.0 mi SSE 10.4 mph 18.4 mph N/A   Overcast
1:36 PM 71.1 °F - 64.9 °F 81% 29.98 in 10.0 mi South 15.0 mph 20.7 mph N/A   Overcast
1:53 PM 72.0 °F - 64.9 °F 78% 29.99 in 10.0 mi South 12.7 mph - N/A   Overcast
2:21 PM 73.9 °F - 64.9 °F 73% 29.95 in 10.0 mi South 10.4 mph 18.4 mph N/A   Mostly Cloudy
2:53 PM 75.0 °F - 66.0 °F 73% 29.94 in 10.0 mi South 12.7 mph - N/A   Partly Cloudy
3:53 PM 75.9 °F - 64.9 °F 69% 29.91 in 10.0 mi SSE 13.8 mph - N/A   Scattered Clouds
4:53 PM 75.0 °F - 63.0 °F 66% 29.91 in 10.0 mi South 16.1 mph - N/A   Overcast
5:53 PM 73.0 °F - 64.0 °F 73% 29.92 in 10.0 mi South 12.7 mph - N/A   Overcast
6:53 PM 72.0 °F - 63.0 °F 73% 29.91 in 10.0 mi South 12.7 mph - N/A   Mostly Cloudy
7:53 PM 70.0 °F - 64.0 °F 81% 29.89 in 10.0 mi South 10.4 mph - N/A   Mostly Cloudy
8:49 PM 71.6 °F - 66.2 °F 83% 29.89 in 10.0 mi South 12.7 mph - 0.00 in   Overcast
8:53 PM 71.1 °F - 66.0 °F 84% 29.89 in 10.0 mi South 12.7 mph - 0.00 in   Overcast
9:15 PM 51.1 °F - 46.0 °F 83% 29.95 in 10.0 mi NW 33.4 mph 41.4 mph 0.00 in Rain Light Rain
9:24 PM 48.0 °F - 45.0 °F 89% 29.97 in 3.0 mi NW 28.8 mph 40.3 mph 0.04 in Rain Rain
9:27 PM 46.9 °F - 44.1 °F 90% 29.97 in 1.8 mi NW 28.8 mph 41.4 mph 0.09 in Rain Heavy Rain
9:37 PM 45.0 °F 35.2 °F 43.0 °F 93% 29.99 in 3.0 mi NW 29.9 mph 39.1 mph 0.12 in Rain Heavy Rain
9:53 PM 42.1 °F 33.3 °F 39.9 °F 92% 30.05 in 3.0 mi WNW 19.6 mph 34.5 mph 0.19 in Rain Heavy Rain
10:12 PM 39.9 °F 31.1 °F 37.9 °F 93% 30.03 in 10.0 mi NW 17.3 mph 25.3 mph 0.03 in Rain Light Rain
10:45 PM 39.9 °F 32.1 °F 37.9 °F 93% 30.04 in 10.0 mi WNW 13.8 mph - 0.03 in Rain Light Rain
10:53 PM 39.9 °F 31.8 °F - N/A% 30.05 in 10.0 mi WNW 15.0 mph 21.9 mph 0.03 in   Overcast
11:53 PM 39.9 °F 32.1 °F - N/A% 30.06 in 10.0 mi NW 13.8 mph - 0.08 in Rain Light Rain